Regional Weather Roundup
Issued by NWS

Home | Current Version | Previous Version | Text Only | Print | Product List | Glossary On
Versions: 1 2 3 4 5 6 7 8 9 10 11 12 13 14 15 16 17 18 19 20 21 22 23 24 25 26 27 28 29 30 31 32 33 34 35 36 37 38 39 40 41 42 43 44 45 46 47 48 49 50
000
ASUS43 KMPX 031310
RWRMN
WEATHER ROUNDUP FOR MINNESOTA
NATIONAL WEATHER SERVICE TWIN CITIES/CHANHASSEN MN
800 AM CDT SUN MAY 03 2015


NOTE: "FAIR" INDICATES FEW OR NO CLOUDS BELOW 12,000 FEET WITH NO
SIGNIFICANT WEATHER AND/OR OBSTRUCTIONS TO VISIBILITY. N/A MEANS
CURRENT SKY AND/OR WEATHER CONDITIONS ARE NOT AVAILABLE.

MNZ060>063-068>070-031400-
   Twin Cities Metro

CITY           SKY/WX    TMP DP  RH WIND       PRES   REMARKS
TWIN CITIES    PTSUNNY   58  50  75 SE9       29.77S
ST PAUL        CLOUDY    58  51  78 SE8       29.78F
CRYSTAL        PTSUNNY   60  51  72 S8        29.76R
LAKEVILLE      CLOUDY    55  50  82 E5        29.78R
EDEN PRAIRIE   PTSUNNY   58  51  78 SE7       29.76S
SOUTH ST PAUL  CLOUDY    58  50  74 SE6       29.78S
LAKE ELMO      FAIR      59  52  77 SE6       29.79S
$$
MNZ001>005-007-008-013>017-022>024-027-028-031400-
   Northwest Minnesota

CITY           SKY/WX    TMP DP  RH WIND       PRES   REMARKS
BEMIDJI        MOSUNNY   58  48  69 NW7       29.75R
HALLOCK        CLOUDY    50  37  62 W9        29.79R
ROSEAU         PTSUNNY   50  43  76 W9        29.76R
WARROAD        PTSUNNY   50  43  76 W9        29.76R
THIEF RVR FALL PTSUNNY   50  41  71 NW9       29.78R
CROOKSTON      CLOUDY    48  43  81 N8        29.81R
DETROIT LAKES  MOSUNNY   55  50  82 N7        29.78R
MOORHEAD       MOSUNNY   50  45  81 N7        29.80R
PARK RAPIDS    SUNNY     58  51  78 NW5       29.75R
MAHNOMEN       FAIR      54  48  81 W3        29.78R
$$
MNZ006-009>011-018-025>026-031400-
   North Central Minnesota

CITY           SKY/WX    TMP DP  RH WIND       PRES   REMARKS
BAUDETTE       PTSUNNY   51  43  74 W7        29.73R
FLAG ISLAND    PTSUNNY   46  41  81 NW15      29.73R
INTL FALLS     MOSUNNY   57  44  62 SW7       29.68R
WASKISH        PTSUNNY   55  48  76 SW9       29.74R
BIG FORK       MOSUNNY   61  48  63 SW5       29.73R
LONGVILLE      MOSUNNY   63  52  67 W3        29.74S
GRAND RAPIDS   MOSUNNY   61  48  63 W6        29.75R
CRANE LAKE     MOSUNNY   57  45  62 S3        29.70S
ORR            MOSUNNY   61  43  51 SW3       29.69S
COOK           MOSUNNY   61  46  59 SW7       29.72S
WALKER         FAIR      58  49  72 W3        29.75R
$$
MNZ012-019>021-037-031400-
   Northeast Minnesota

CITY           SKY/WX    TMP DP  RH WIND       PRES   REMARKS
DULUTH         MOSUNNY   63  53  70 SW13      29.73R
ELY            PTSUNNY   61  46  59 W12       29.72R
HIBBING        PTSUNNY   55  45  68 CALM      29.73R
EVELETH        PTSUNNY   57  46  67 CALM      29.75R
DULUTH HARBOR  PTSUNNY   63  55  77 SW12      29.72R
TWO HARBORS    CLOUDY    64  54  68 W6        29.70S
SILVER BAY     CLOUDY    55  48  76 SE5       29.71R
GRAND MARAIS     N/A     44  40  85 CALM      29.72S
G MARAIS ARPRT CLOUDY    54  46  76 CALM      29.73S
$$
MNZ029>031-032-039>041-046>048-054>057-064-031400-
   West Central Minnesota

CITY           SKY/WX    TMP DP  RH WIND       PRES   REMARKS
FERGUS FALLS   SUNNY     61  52  72 CALM      29.76R
WHEATON        SUNNY     57  52  82 NW5       29.78R
MORRIS         MOSUNNY   57  54  88 S9        29.73S
ALEXANDRIA     MOSUNNY   61  55  81 CALM      29.74R
ELBOW LAKE     FAIR      58  55  87 NW10      29.75R
WADENA         SUNNY     57  52  82 NW6       29.75R
GLENWOOD       MOSUNNY   57  54  88 E1        29.74R
APPLETON       SUNNY     61  52  72 SE7       29.72R
BENSON         MOSUNNY   61  52  72 S9        29.73R
ORTONVILLE     MOSUNNY   59  52  77 SE5       29.74R
MADISON        SUNNY     59  52  77 E8        29.72R
WILLMAR        FAIR      59  54  82 SE14      29.76R
$$
MNZ033>034-036-042>043-049>051-058-059-031400-
   Central Minnesota

CITY           SKY/WX    TMP DP  RH WIND       PRES   REMARKS
ST CLOUD       MOSUNNY   59  53  80 S8        29.73R
SAUK CENTRE    FAIR      60  55  84 S9        29.73R
PAYNESVILLE    MOSUNNY   55  51  86 SE7       29.74S
AITKIN         SUNNY     61  54  77 CALM      29.73R
PINE RIVER     SUNNY     57  52  82 CALM      29.78S
BRAINERD       SUNNY     60  55  83 CALM      29.75R
STAPLES        SUNNY     57  52  82 N5        29.75R
LONG PRAIRIE   FAIR      59  54  82 S3        29.74R
LITTLE FALLS   SUNNY     61  52  72 S6        29.73R
LITCHFIELD     LGT RAIN  57  55  94 SE13G20   29.73F
BUFFALO        MOSUNNY   58  51  75 SE8       29.76F
MAPLE LAKE     MOSUNNY   59  53  81 S7G18     29.74F
$$
MNZ037-044-045-052-053-031400-
   East Central Minnesota

CITY           SKY/WX    TMP DP  RH WIND       PRES   REMARKS
PRINCETON      MOSUNNY   61  54  77 S10       29.74R
MORA           MOSUNNY   57  50  77 CALM      29.76R
CAMBRIDGE      PTSUNNY   61  50  67 S7        29.74R
RUSH CITY      CLOUDY    58  51  77 S8        29.74F
MOOSE LAKE     MOSUNNY   61  54  77 S5        29.72S
HINCKLEY       FAIR      61  54  77 SE6       29.74F
CLOQUET        MOSUNNY   63  54  72 S10       29.73S
MCGREGOR       SUNNY     61  54  77 SW5       29.75R
$$
MNZ071>073-080-081-089-090-097-098-031400-
   Southwest Minnesota

CITY           SKY/WX    TMP DP  RH WIND       PRES   REMARKS
MONTEVIDEO     MOSUNNY   59  52  77 S12       29.74R
GRANITE FALLS  MOSUNNY   56  52  88 E8        29.75R
CANBY          SUNNY     59  53  79 E6        29.74R
MARSHALL       MOSUNNY   57  48  72 SE8       29.74R
REDWOOD FALLS  PTSUNNY   56  52  86 E6        29.75R
OLIVIA         PTSUNNY   54  48  82 SE10      29.75F
PIPESTONE      MOSUNNY   59  52  77 SE6       29.74S
WINDOM         PTSUNNY   61  52  72 CALM      29.76R
WORTHINGTON    SUNNY     57  50  77 S9        29.76R
JACKSON        PTSUNNY   55  52  88 S8        29.76S
TRACY          SUNNY     59  53  80 E7        29.74R
SLAYTON        SUNNY     58  53  83 CALM      29.75R
$$
MNZ065>067-074>077-082>085-091>093-031400-
   South Central Minnesota

CITY           SKY/WX    TMP DP  RH WIND       PRES   REMARKS
MANKATO        PTSUNNY   57  48  72 S7        29.77R
NEW ULM        CLOUDY    55  52  88 S6        29.76R
ST JAMES       CLOUDY    61  54  77 S8        29.77R
FAIRMONT       PTSUNNY   57  48  72 S15       29.76R
GLENCOE        CLOUDY    58  53  84 E3        29.78R
FARIBAULT      PTSUNNY   59  52  77 S8        29.78S
OWATONNA       PTSUNNY   61  52  72 S7        29.78R
WASECA         PTSUNNY   59  52  77 S10       29.79R
ALBERT LEA     PTSUNNY   61  52  72 S3        29.78R
$$
MNZ078>079-086>088-094>096-031400-
   Southeast Minnesota

CITY           SKY/WX    TMP DP  RH WIND       PRES   REMARKS
ROCHESTER      CLOUDY    55  49  80 SE7       29.82R
RED WING       CLOUDY    59  52  77 SE7       29.79S
STANTON        CLOUDY    58  50  73 S9        29.77S
DODGE CENTER   CLOUDY    57  52  82 S8        29.79S
WINONA         CLOUDY    61  50  67 SE6       29.81S
AUSTIN         CLOUDY    55  52  88 S7        29.79R
PRESTON        CLOUDY    56  49  76 S8        29.82R
$$
ABBREVIATIONS USED IN REMARKS
   TC - TEMPERATURES IN CELSIUS
  WCI - WIND CHILL INDEX
   HX - HEAT INDEX
  VSB - VISIBILITY
$$



USA.gov is the U.S. government's official web portal to all federal, state and local government web resources and services.